Year,Month,Day,Hour,Minute,Value (Times are PST for temperature in C)
2015,05,18,15,30,23.30
2015,05,18,15,31,23.30
2015,05,18,15,32,23.30
2015,05,18,15,33,23.40
2015,05,18,15,34,23.40
2015,05,18,15,35,23.40
2015,05,18,15,36,23.40
2015,05,18,15,37,23.50
2015,05,18,15,38,23.50
2015,05,18,15,39,23.50
2015,05,18,15,40,23.50
2015,05,18,15,41,23.50
2015,05,18,15,42,23.50
2015,05,18,15,43,23.60
2015,05,18,15,44,23.50
2015,05,18,15,45,23.50
2015,05,18,15,46,23.50
2015,05,18,15,47,23.40
2015,05,18,15,48,23.50
2015,05,18,15,49,23.50
2015,05,18,15,50,23.50
2015,05,18,15,51,23.40
2015,05,18,15,52,23.40
2015,05,18,15,53,23.40
2015,05,18,15,54,23.50
2015,05,18,15,55,23.60
2015,05,18,15,56,23.60
2015,05,18,15,57,23.70
2015,05,18,15,58,23.70
2015,05,18,15,59,23.70
2015,05,18,16,00,23.80
2015,05,18,16,01,23.80
2015,05,18,16,02,23.80
2015,05,18,16,03,23.80
2015,05,18,16,04,23.80
2015,05,18,16,05,23.80
2015,05,18,16,06,23.90
2015,05,18,16,07,23.90
2015,05,18,16,08,24.00
2015,05,18,16,09,24.00
2015,05,18,16,10,23.90
2015,05,18,16,11,23.90
2015,05,18,16,12,23.90
2015,05,18,16,13,23.90
2015,05,18,16,14,23.90
2015,05,18,16,15,23.90
2015,05,18,16,16,23.90
2015,05,18,16,17,24.00
2015,05,18,16,18,24.00
2015,05,18,16,19,24.10
2015,05,18,16,20,24.20
2015,05,18,16,21,24.20
2015,05,18,16,22,24.20
2015,05,18,16,23,24.30
2015,05,18,16,24,24.30
2015,05,18,16,25,24.30
2015,05,18,16,26,24.30
2015,05,18,16,27,24.20
2015,05,18,16,28,24.20
2015,05,18,16,29,24.10
2015,05,18,16,30,24.10
2015,05,18,16,31,24.00
2015,05,18,16,32,24.00
2015,05,18,16,33,24.00
2015,05,18,16,34,23.90
2015,05,18,16,35,23.90
2015,05,18,16,36,23.90
2015,05,18,16,37,23.90
2015,05,18,16,38,23.90
2015,05,18,16,39,23.90
2015,05,18,16,40,23.90
2015,05,18,16,41,23.90
2015,05,18,16,42,23.90
2015,05,18,16,43,23.90
2015,05,18,16,44,23.90
2015,05,18,16,45,23.90
2015,05,18,16,46,23.90
2015,05,18,16,47,23.90
2015,05,18,16,48,23.90
2015,05,18,16,49,23.90
2015,05,18,16,50,24.00
2015,05,18,16,51,24.00
2015,05,18,16,52,24.10
2015,05,18,16,53,24.10
2015,05,18,16,54,24.10
2015,05,18,16,55,24.20
2015,05,18,16,56,24.10
2015,05,18,16,57,24.10
2015,05,18,16,58,24.00
2015,05,18,16,59,23.90
2015,05,18,17,00,23.80
2015,05,18,17,01,23.80
2015,05,18,17,02,23.70
2015,05,18,17,03,23.60
2015,05,18,17,04,23.60
2015,05,18,17,05,23.50
2015,05,18,17,06,23.60
2015,05,18,17,07,23.60
2015,05,18,17,08,23.70
2015,05,18,17,09,23.70
2015,05,18,17,10,23.80
2015,05,18,17,11,23.90
2015,05,18,17,12,23.90
2015,05,18,17,13,24.00
2015,05,18,17,14,24.10
2015,05,18,17,15,24.20
2015,05,18,17,16,24.10
2015,05,18,17,17,24.10
2015,05,18,17,18,24.00
2015,05,18,17,19,23.80
2015,05,18,17,20,23.70
2015,05,18,17,21,23.60
2015,05,18,17,22,23.40
2015,05,18,17,23,23.30
2015,05,18,17,24,23.20
2015,05,18,17,25,23.10
2015,05,18,17,26,23.10
2015,05,18,17,27,23.00
2015,05,18,17,28,22.90
2015,05,18,17,29,22.90
2015,05,18,17,30,22.70
2015,05,18,17,31,22.60
2015,05,18,17,32,22.60
2015,05,18,17,33,22.50
2015,05,18,17,34,22.50
2015,05,18,17,35,22.40
2015,05,18,17,36,22.30
2015,05,18,17,37,22.30
2015,05,18,17,38,22.20
2015,05,18,17,39,22.10
2015,05,18,17,40,22.10
2015,05,18,17,41,22.00
2015,05,18,17,42,21.90
2015,05,18,17,43,21.90
2015,05,18,17,44,21.80
2015,05,18,17,45,21.80
2015,05,18,17,46,21.80
2015,05,18,17,47,21.80
2015,05,18,17,48,21.80
2015,05,18,17,49,21.80
2015,05,18,17,50,21.80
2015,05,18,17,51,21.80
2015,05,18,17,52,21.70
2015,05,18,17,53,21.70
2015,05,18,17,54,21.70
2015,05,18,17,55,21.70
2015,05,18,17,56,21.70
2015,05,18,17,57,21.70
2015,05,18,17,58,21.70
2015,05,18,17,59,21.60
2015,05,18,18,00,21.60
2015,05,18,18,01,21.60
2015,05,18,18,02,21.60
2015,05,18,18,03,21.50
2015,05,18,18,04,21.50
2015,05,18,18,05,21.50
2015,05,18,18,06,21.50
2015,05,18,18,07,21.50
2015,05,18,18,08,21.40
2015,05,18,18,09,21.50
2015,05,18,18,10,21.50
2015,05,18,18,11,21.50
2015,05,18,18,12,21.50
2015,05,18,18,13,21.50
2015,05,18,18,14,21.60
2015,05,18,18,15,21.60
2015,05,18,18,16,21.60
2015,05,18,18,17,21.60
2015,05,18,18,18,21.60
2015,05,18,18,19,21.60
2015,05,18,18,20,21.60
2015,05,18,18,21,21.60
2015,05,18,18,22,21.60
2015,05,18,18,23,21.60
2015,05,18,18,24,21.50
2015,05,18,18,25,21.60
2015,05,18,18,26,21.50
2015,05,18,18,27,21.50
2015,05,18,18,28,21.50
2015,05,18,18,29,21.50
2015,05,18,18,30,21.40
2015,05,18,18,31,21.40
2015,05,18,18,32,21.40
2015,05,18,18,33,21.40
2015,05,18,18,34,21.40
2015,05,18,18,35,21.40
2015,05,18,18,36,21.40
2015,05,18,18,37,21.40
2015,05,18,18,38,21.40
2015,05,18,18,39,21.40
2015,05,18,18,40,21.40
2015,05,18,18,41,21.30
2015,05,18,18,42,21.30
2015,05,18,18,43,21.30
2015,05,18,18,44,21.30
2015,05,18,18,45,21.30
2015,05,18,18,46,21.40
2015,05,18,18,47,21.40
2015,05,18,18,48,21.40
2015,05,18,18,49,21.50
2015,05,18,18,50,21.50
2015,05,18,18,51,21.50
2015,05,18,18,52,21.60
2015,05,18,18,53,21.70
2015,05,18,18,54,21.70
2015,05,18,18,55,21.80
2015,05,18,18,56,21.80
2015,05,18,18,57,21.80
2015,05,18,18,58,21.80
2015,05,18,18,59,21.90
2015,05,18,19,00,21.90
2015,05,18,19,01,21.90
2015,05,18,19,02,21.90
2015,05,18,19,03,22.00
2015,05,18,19,04,22.00
2015,05,18,19,05,22.00
2015,05,18,19,06,22.00
2015,05,18,19,07,22.10
2015,05,18,19,08,22.10
2015,05,18,19,09,22.10
2015,05,18,19,10,22.10
2015,05,18,19,11,22.10
2015,05,18,19,12,22.10
2015,05,18,19,13,22.10
2015,05,18,19,14,22.20
2015,05,18,19,15,22.20
2015,05,18,19,16,22.20
2015,05,18,19,17,22.20
2015,05,18,19,18,22.20
2015,05,18,19,19,22.30
2015,05,18,19,20,22.30
2015,05,18,19,21,22.30
2015,05,18,19,22,22.30
2015,05,18,19,23,22.30
2015,05,18,19,24,22.30
2015,05,18,19,25,22.30
2015,05,18,19,26,22.30
2015,05,18,19,27,22.40
2015,05,18,19,28,22.40
2015,05,18,19,29,22.40
2015,05,18,19,30,22.30
2015,05,18,19,31,22.30
2015,05,18,19,32,22.30
2015,05,18,19,33,22.30
2015,05,18,19,34,22.30
2015,05,18,19,35,22.30
2015,05,18,19,36,22.20
2015,05,18,19,37,22.20
2015,05,18,19,38,22.20
2015,05,18,19,39,22.10
2015,05,18,19,40,22.00
2015,05,18,19,41,21.90
2015,05,18,19,42,21.80
2015,05,18,19,43,21.70
2015,05,18,19,44,21.60
2015,05,18,19,45,21.60
2015,05,18,19,46,21.50
2015,05,18,19,47,21.40
2015,05,18,19,48,21.30
2015,05,18,19,49,21.30
2015,05,18,19,50,21.20
2015,05,18,19,51,21.20
2015,05,18,19,52,21.10
2015,05,18,19,53,21.10
2015,05,18,19,54,21.00
2015,05,18,19,55,20.90
2015,05,18,19,56,20.90
2015,05,18,19,57,20.90
2015,05,18,19,58,20.80
2015,05,18,19,59,20.80
2015,05,18,20,00,20.80
2015,05,18,20,01,20.70
2015,05,18,20,02,20.70
2015,05,18,20,03,20.60
2015,05,18,20,04,20.60
2015,05,18,20,05,20.60
2015,05,18,20,06,20.60
2015,05,18,20,07,20.60
2015,05,18,20,08,20.60
2015,05,18,20,09,20.60
2015,05,18,20,10,20.60
2015,05,18,20,11,20.60
2015,05,18,20,12,20.60
2015,05,18,20,13,20.60
2015,05,18,20,14,20.70
2015,05,18,20,15,20.70
2015,05,18,20,16,20.70
2015,05,18,20,17,20.70
2015,05,18,20,18,20.70
2015,05,18,20,19,20.70
2015,05,18,20,20,20.60
2015,05,18,20,21,20.60
2015,05,18,20,22,20.60
2015,05,18,20,23,20.60
2015,05,18,20,24,20.60
2015,05,18,20,25,20.60
2015,05,18,20,26,20.60
2015,05,18,20,27,20.60
2015,05,18,20,28,20.50
2015,05,18,20,29,20.50
2015,05,18,20,30,20.50
2015,05,18,20,31,20.40
2015,05,18,20,32,20.40
2015,05,18,20,33,20.40
2015,05,18,20,34,20.30
2015,05,18,20,35,20.30
2015,05,18,20,36,20.30
2015,05,18,20,37,20.30
2015,05,18,20,38,20.30
2015,05,18,20,39,20.20
2015,05,18,20,40,20.20
2015,05,18,20,41,20.20
2015,05,18,20,42,20.10
2015,05,18,20,43,20.10
2015,05,18,20,44,20.00
2015,05,18,20,45,20.00
2015,05,18,20,46,19.90
2015,05,18,20,47,19.90
2015,05,18,20,48,19.80
2015,05,18,20,49,19.80
2015,05,18,20,50,19.80
2015,05,18,20,51,19.70
2015,05,18,20,52,19.70
2015,05,18,20,53,19.60
2015,05,18,20,54,19.50
2015,05,18,20,55,19.50
2015,05,18,20,56,19.30
2015,05,18,20,57,19.30
2015,05,18,20,58,19.20
2015,05,18,20,59,19.20
2015,05,18,21,00,19.10
2015,05,18,21,01,19.00
2015,05,18,21,02,19.00
2015,05,18,21,03,18.90
2015,05,18,21,04,18.80
2015,05,18,21,05,18.80
2015,05,18,21,06,18.70
2015,05,18,21,07,18.70
2015,05,18,21,08,18.60
2015,05,18,21,09,18.60
2015,05,18,21,10,18.50
2015,05,18,21,11,18.40
2015,05,18,21,12,18.30
2015,05,18,21,13,18.30
2015,05,18,21,14,18.30
2015,05,18,21,15,18.20
2015,05,18,21,16,18.20
2015,05,18,21,17,18.10
2015,05,18,21,18,18.00
2015,05,18,21,19,18.00
2015,05,18,21,20,17.90
2015,05,18,21,21,17.90
2015,05,18,21,22,17.90
2015,05,18,21,23,17.80
2015,05,18,21,24,17.80
2015,05,18,21,25,17.80
2015,05,18,21,26,17.80
2015,05,18,21,27,17.70
2015,05,18,21,28,17.70
2015,05,18,21,29,17.70
2015,05,18,21,30,17.60
2015,05,18,21,31,17.60
2015,05,18,21,32,17.60
2015,05,18,21,33,17.60
2015,05,18,21,34,17.60
2015,05,18,21,35,17.60
2015,05,18,21,36,17.50
2015,05,18,21,37,17.50
2015,05,18,21,38,17.50
2015,05,18,21,39,17.60
2015,05,18,21,40,17.50
2015,05,18,21,41,17.50
2015,05,18,21,42,17.50
2015,05,18,21,43,17.50
2015,05,18,21,44,17.50
2015,05,18,21,45,17.50
2015,05,18,21,46,17.50
2015,05,18,21,47,17.50
2015,05,18,21,48,17.50
2015,05,18,21,49,17.50
2015,05,18,21,50,17.50
2015,05,18,21,51,17.40
2015,05,18,21,52,17.40
2015,05,18,21,53,17.40
2015,05,18,21,54,17.40
2015,05,18,21,55,17.40
2015,05,18,21,56,17.40
2015,05,18,21,57,17.30
2015,05,18,21,58,17.30
2015,05,18,21,59,17.30
2015,05,18,22,00,17.30
2015,05,18,22,01,17.20
2015,05,18,22,02,17.20
2015,05,18,22,03,17.10
2015,05,18,22,04,17.10
2015,05,18,22,05,17.10
2015,05,18,22,06,17.00
2015,05,18,22,07,17.00
2015,05,18,22,08,16.90
2015,05,18,22,09,16.90
2015,05,18,22,10,16.80
2015,05,18,22,11,16.80
2015,05,18,22,12,16.80
2015,05,18,22,13,16.70
2015,05,18,22,14,16.60
2015,05,18,22,15,16.50
2015,05,18,22,16,16.40
2015,05,18,22,17,16.40
2015,05,18,22,18,16.30
2015,05,18,22,19,16.20
2015,05,18,22,20,16.20
2015,05,18,22,21,16.10
2015,05,18,22,22,16.10
2015,05,18,22,23,16.00
2015,05,18,22,24,15.90
2015,05,18,22,25,15.80
2015,05,18,22,26,15.80
2015,05,18,22,27,15.70
2015,05,18,22,28,15.70
2015,05,18,22,29,15.60
2015,05,18,22,30,15.60
2015,05,18,22,31,15.50
2015,05,18,22,32,15.50
2015,05,18,22,33,15.40
2015,05,18,22,34,15.40
2015,05,18,22,35,15.40
2015,05,18,22,36,15.40
2015,05,18,22,37,15.40
2015,05,18,22,38,15.40
2015,05,18,22,39,15.40
2015,05,18,22,40,15.50
2015,05,18,22,41,15.50
2015,05,18,22,42,15.60
2015,05,18,22,43,15.60
2015,05,18,22,44,15.60
2015,05,18,22,45,15.70
2015,05,18,22,46,15.70
2015,05,18,22,47,15.70
2015,05,18,22,48,15.80
2015,05,18,22,49,15.80
2015,05,18,22,50,15.80
2015,05,18,22,51,15.90
2015,05,18,22,52,15.90
2015,05,18,22,53,16.00
2015,05,18,22,54,16.10
2015,05,18,22,55,16.10
2015,05,18,22,56,16.20
2015,05,18,22,57,16.20
2015,05,18,22,58,16.10
2015,05,18,22,59,16.10
2015,05,18,23,00,16.10
2015,05,18,23,01,16.20
2015,05,18,23,02,16.20
2015,05,18,23,03,16.20
2015,05,18,23,04,16.20
2015,05,18,23,05,16.20
2015,05,18,23,06,16.30
2015,05,18,23,07,16.30
2015,05,18,23,08,16.30
2015,05,18,23,09,16.30
2015,05,18,23,10,16.30
2015,05,18,23,11,16.30
2015,05,18,23,12,16.30
2015,05,18,23,13,16.30
2015,05,18,23,14,16.30
2015,05,18,23,15,16.30
2015,05,18,23,16,16.30
2015,05,18,23,17,16.30
2015,05,18,23,18,16.30
2015,05,18,23,19,16.20
2015,05,18,23,20,16.20
2015,05,18,23,21,16.20
2015,05,18,23,22,16.20
2015,05,18,23,23,16.10
2015,05,18,23,24,16.10
2015,05,18,23,25,16.10
2015,05,18,23,26,16.10
2015,05,18,23,27,16.10
2015,05,18,23,28,16.10
2015,05,18,23,29,16.10
2015,05,18,23,30,16.00
2015,05,18,23,31,16.00
2015,05,18,23,32,15.90
2015,05,18,23,33,15.90
2015,05,18,23,34,15.90
2015,05,18,23,35,15.90
2015,05,18,23,36,15.80
2015,05,18,23,37,15.80
2015,05,18,23,38,15.80
2015,05,18,23,39,15.80
2015,05,18,23,40,15.80
2015,05,18,23,41,15.80
2015,05,18,23,42,15.80
2015,05,18,23,43,15.80
2015,05,18,23,44,15.80
2015,05,18,23,45,15.80
2015,05,18,23,46,15.80
2015,05,18,23,47,15.70
2015,05,18,23,48,15.70
2015,05,18,23,49,15.70
2015,05,18,23,50,15.60
2015,05,18,23,51,15.60
2015,05,18,23,52,15.60
2015,05,18,23,53,15.60
2015,05,18,23,54,15.50
2015,05,18,23,55,15.50
2015,05,18,23,56,15.50
2015,05,18,23,57,15.60
2015,05,18,23,58,15.60
2015,05,18,23,59,15.60
